Miscellaneous Local Product
Issued by NWS North Platte, NE

Home | Current Version | Previous Version | Graphics & Text | Print | Product List | Glossary On
Versions: 1 2 3 4 5 6 7 8 9 10 11 12 13 14 15 16 17 18 19 20 21 22 23 24 25 26 27 28 29 30 31 32 33 34 35 36 37 38 39 40 41 42 43 44 45 46 47 48 49 50
000
AXUS43 KLBF 271010
MISLBF


WESTERN AND NORTH CENTRAL NEBRASKA HOURLY WEATHER ROUNDUP
NATIONAL WEATHER SERVICE NORTH PLATTE NE
400 AM CST TUE JAN 27 2015

***STATIONS NOT REPORTING VARIABLES SUCH AS SKY/WEATHER OR
PRESSURE ARE PROVIDED BY THE NEBRASKA DEPARTMENT OF
ROADS...RAWS...AND APRS NETWORKS...AND ARE NOT UNDER
NATIONAL WEATHER SERVICE QUALITY CONTROL***

...OBSERVATIONS IN AND NEAR THE EASTERN PANHANDLE OF NEBRASKA...

CITY           SKY/WX    TMP DP  RH WIND       PRES   REMARKS
PINE RIDGE     CLEAR     38  27  64 W7        30.02F WCI  33
CHADRON        CLEAR     34  27  75 SW9       30.04S WCI  27
ALLIANCE       CLEAR     28  25  88 W7        30.06F WCI  21
SIDNEY         PTCLDY    35  27  72 W8        30.10F WCI  29
WHITECLAY        N/A     29  25  82 SE7         N/A  WCI  22
CRESCENT LAKE    N/A     38  27  63 CALM        N/A
LISCO            N/A     32  26  76 W3          N/A
LEWELLEN         N/A     29  26  90 CALM        N/A
$$

...OBSERVATIONS IN NORTH CENTRAL NEBRASKA...

CITY           SKY/WX    TMP DP  RH WIND       PRES   REMARKS
VALENTINE      CLEAR     28  26  92 SW6       29.99F WCI  22
THEDFORD       CLEAR     32  30  92 W3        30.02F
AINSWORTH      CLEAR     36  31  81 SW6       29.99F WCI  32
O`NEILL        CLEAR     32  29  88 S5        30.02F WCI  27
ORD            CLEAR     26  22  84 CALM      30.03F
BROKEN BOW     CLEAR     31  26  82 CALM      30.02F
BROWNLEE         N/A     40  32  71 SW5         N/A
VALENTINE NWR    N/A     33  28  81 CALM        N/A
SPRINGVIEW       N/A     25  23  91 CALM        N/A
HALSEY           N/A     32  28  85 CALM        N/A
BREWSTER         N/A     32  30  93 CALM        N/A
ROSE             N/A     36  34  93 E3          N/A
NEWPORT          N/A     36  32  87 S6          N/A  WCI  31
SARGENT          N/A     28  26  94 CALM        N/A
COMSTOCK         N/A     35  32  89 CALM        N/A
CHAMBERS         N/A     30  25  81 CALM        N/A
EWING            N/A     30  27  90 CALM        N/A
$$

...OBSERVATIONS IN SOUTHWEST NEBRASKA AND FAR NORTHEAST COLORADO...

CITY           SKY/WX    TMP DP  RH WIND       PRES   REMARKS
WRAY           FAIR      37  30  77 W9        30.11S WCI  30
HOLYOKE        FAIR      37  32  81 W9        30.09F WCI  31
IMPERIAL       PTCLDY    33  26  75 CALM      30.08F
OGALLALA       PTCLDY    29  27  94 W6        30.07F WCI  22
NORTH PLATTE   PTCLDY    25  22  88 W6        30.06F WCI  18
MCCOOK         PTCLDY    33  27  78 W5        30.08S WCI  29
LEXINGTON      CLEAR     29  26  89 W8        30.05F WCI  21
BRADY            N/A     29  26  86 CALM        N/A
GOTHENBURG       N/A     33  26  76 W3          N/A
CALLAWAY         N/A     41  34  76 W16         N/A
$$

...NORTH PLATTE AREA...

CITY           SKY/WX    TMP DP  RH WIND       PRES   REMARKS
AIRPORT        PTCLDY    25  22  88 W6        30.06F WCI  18
DOWNTOWN         N/A     32  28  84 CALM        N/A
$$

...SOME WEATHER OBSERVATIONS FROM AROUND THE REGION...

CITY           SKY/WX    TMP DP  RH WIND       PRES   REMARKS
DENVER         CLEAR     49  23  36 SW20      30.17F
LARAMIE        PTCLDY    29  20  69 S10       30.26F WCI  20
CHEYENNE       PTCLDY    46  19  34 W12       30.17F
SCOTTSBLUFF    PTCLDY    32  28  85 N5        30.08F WCI  27
RAPID CITY     CLEAR     44  26  49 W9        29.95F
PIERRE         CLEAR     31  27  85 SE6       29.94F WCI  25
WINNER         FAIR      41  32  70 S12       29.97F
SIOUX FALLS    CLEAR     26  24  92 CALM      30.04F
OMAHA          CLEAR     30  28  92 CALM      30.07F
GRAND ISLAND   CLEAR     28  24  85 CALM      30.06F
KANSAS CITY    CLEAR     38  32  79 NW6       30.08R WCI  33
WICHITA        CLEAR     36  29  75 CALM      30.09S
HAYS           CLEAR     32  19  59 W3        30.09S
LIBERAL        CLEAR     37  27  65 W7        30.16F WCI  32
GOODLAND       CLEAR     44  29  55 W14       30.11F
$$



USA.gov is the U.S. government's official web portal to all federal, state and local government web resources and services.